This demonstration page uses our WeatherBlox Daily Observations layout. Learn more.

Left ArrowRight Arrow

Hourly Observations for September 2, 2019

Temp ( °F °C ) Dew Point ( °F °C ) Humidity (%) Winds ( mph kmh ) Pressure ( in mb ) Visibility ( mi km ) Precip ( " mm )
12:53 am 00:53 Clear 74 23.3 65 18.3 74 74 Calm 30.06 1018 10 16 0.00 0.00
1:53 am 01:53 Clear 71 21.7 65 18.3 81 81 Calm 30.06 1018 10 16 0.00 0.00
2:53 am 02:53 Clear 71 21.7 65 18.3 81 81 Calm 30.05 1018 10 16 0.00 0.00
3:53 am 03:53 Clear 69 20.6 65 18.3 87 87 NE 3 6 30.04 1017 10 16 0.00 0.00
4:53 am 04:53 Clear 68 20 65 18.3 90 90 NNE 3 6 30.04 1017 10 16 0.00 0.00
5:53 am 05:53 Clear 68 20 64 17.8 87 87 Calm 30.05 1018 10 16 0.00 0.00
6:53 am 06:53 Clear 68 20 65 18.3 90 90 Calm 30.06 1018 10 16 0.00 0.00
7:53 am 07:53 Sunny 68 20 65 18.3 90 90 Calm 30.08 1019 10 16 0.00 0.00
8:53 am 08:53 Sunny 74 23.3 66 18.9 76 76 NE 5 7 30.08 1019 10 16 0.00 0.00
9:53 am 09:53 Sunny 78 25.6 65 18.3 64 64 ENE 9 15 30.08 1019 10 16 0.00 0.00
10:53 am 10:53 Sunny 83 28.3 64 17.8 53 53 NNE 8 13 30.07 1018 10 16 0.00 0.00
11:53 am 11:53 Sunny 85 29.4 64 17.8 50 50 ENE 5 7 30.07 1018 10 16 0.00 0.00
12:53 pm 12:53 Sunny 88 31.1 63 17.2 43 43 N 12 19 30.05 1018 10 16 0.00 0.00
1:53 pm 13:53 Mostly Sunny 90 32.2 63 17.2 41 41 NNE 12 19 30.03 1017 10 16 0.00 0.00
2:53 pm 14:53 Partly Cloudy 90 32.2 62 16.7 39 39 Calm 30.01 1016 10 16 0.00 0.00
3:53 pm 15:53 Mostly Cloudy 93 33.9 63 17.2 37 37 NNE 10 17 29.98 1015 10 16 0.00 0.00
4:53 pm 16:53 Sunny 92 33.3 62 16.7 37 37 NNE 7 11 29.96 1015 10 16 0.00 0.00
5:53 pm 17:53 Mostly Sunny 92 33.3 61 16.1 36 36 NNE 5 7 29.96 1014 10 16 0.00 0.00
6:53 pm 18:53 Mostly Sunny 91 32.8 59 15 34 34 NNE 6 9 29.96 1014 10 16 0.00 0.00
7:53 pm 19:53 Sunny 87 30.6 61 16.1 42 42 Calm 29.96 1015 10 16 0.00 0.00
8:53 pm 20:53 Clear 82 27.8 64 17.8 55 55 Calm 29.97 1015 10 16 0.00 0.00
9:53 pm 21:53 Clear 78 25.6 64 17.8 62 62 Calm 29.98 1015 10 16 0.00 0.00
10:53 pm 22:53 Clear 74 23.3 65 18.3 74 74 Calm 29.98 1015 10 16 0.00 0.00
11:53 pm 23:53 Clear 73 22.8 66 18.9 79 79 Calm 29.98 1015 10 16 0.00 0.00

Powered by AerisWeather